User: anonymous   Login
Location: Lone Wolf Observatory
(41.0360°N, 89.2260°W)
Time: 02:08:47
(UTC-05:00)
Language:

Cosmos 1378 Rocket - Orbit

View from above orbital plane
View from above orbital plane
View from above satellite
View from above satellite

Ground track
Ground track

The orbit data is extracted from the following two-line orbital elements,

1 13272U 82059B   17118.83401467 +.00000110 +00000-0 +10180-4 0  9996
2 13272 082.5123 185.5466 0017032 281.6951 078.2353 14.84589307884577
Epoch (UTC): 28 April 2017 20:00:58
Eccentricity: 0.0017032
inclination: 82.5123°
perigee height: 603 km
apogee height: 627 km
right ascension of ascending node: 185.5466°
argument of perigee: 281.6951°
revolutions per day: 14.84589307
mean anomaly at epoch: 78.2353°
orbit number at epoch: 88457

The dashed part of the orbit path shows where the satellite is in the earth's shadow,  

DLR